Time,TemperatureF,DewpointF,PressureIn,WindDirection,WindDirectionDegrees,WindSpeedMPH,WindSpeedGustMPH,Humidity,HourlyPrecipIn,Conditions,Clouds,dailyrainin,SoftwareType,DateUTC
2013-10-22 00:01:00,75.6,70.8,29.97,WNW,292,0.0,1.0,85,0.00,,,0.00,WUHU216DAVISVP2,2013-10-22 04:01:00,
2013-10-22 00:06:00,75.6,70.8,29.97,WNW,294,0.0,1.0,85,0.00,,,0.00,WUHU216DAVISVP2,2013-10-22 04:06:00,
2013-10-22 00:11:00,75.6,70.8,29.98,WNW,294,0.0,1.0,85,0.00,,,0.00,WUHU216DAVISVP2,2013-10-22 04:11:00,
2013-10-22 00:16:00,75.6,70.8,29.97,WNW,294,0.0,0.0,85,0.00,,,0.00,WUHU216DAVISVP2,2013-10-22 04:16:00,
2013-10-22 00:21:00,75.5,71.0,29.98,WNW,296,0.0,1.0,86,0.00,,,0.00,WUHU216DAVISVP2,2013-10-22 04:21:00,
2013-10-22 00:26:00,75.5,71.0,29.98,WNW,295,0.0,1.0,86,0.00,,,0.00,WUHU216DAVISVP2,2013-10-22 04:26:00,
2013-10-22 00:31:00,75.5,71.0,29.98,WNW,296,0.0,0.0,86,0.00,,,0.00,WUHU216DAVISVP2,2013-10-22 04:31:00,
2013-10-22 00:36:00,75.5,71.0,29.98,NW,322,0.0,2.0,86,0.00,,,0.00,WUHU216DAVISVP2,2013-10-22 04:36:00,
2013-10-22 00:41:00,75.5,71.0,29.98,NW,322,0.0,2.0,86,0.00,,,0.00,WUHU216DAVISVP2,2013-10-22 04:41:00,
2013-10-22 00:46:00,75.5,71.0,29.98,NW,311,0.0,1.0,86,0.00,,,0.00,WUHU216DAVISVP2,2013-10-22 04:46:00,
2013-10-22 00:51:00,75.5,71.0,29.97,NW,308,0.0,2.0,86,0.00,,,0.00,WUHU216DAVISVP2,2013-10-22 04:51:00,
2013-10-22 00:56:00,75.5,71.0,29.97,NW,309,0.0,2.0,86,0.00,,,0.00,WUHU216DAVISVP2,2013-10-22 04:56:00,
2013-10-22 01:01:00,75.4,70.9,29.97,NW,310,0.0,1.0,86,0.00,,,0.00,WUHU216DAVISVP2,2013-10-22 05:01:00,
2013-10-22 01:06:00,75.4,70.9,29.97,NW,313,0.0,2.0,86,0.00,,,0.00,WUHU216DAVISVP2,2013-10-22 05:06:00,
2013-10-22 01:11:00,75.4,70.9,29.97,NW,313,0.0,2.0,86,0.00,,,0.00,WUHU216DAVISVP2,2013-10-22 05:11:00,
2013-10-22 01:16:00,75.4,70.9,29.97,NW,313,0.0,1.0,86,0.00,,,0.00,WUHU216DAVISVP2,2013-10-22 05:16:00,
2013-10-22 01:21:00,75.3,70.8,29.97,WNW,296,0.0,1.0,86,0.00,,,0.00,WUHU216DAVISVP2,2013-10-22 05:21:00,
2013-10-22 01:26:00,75.3,70.8,29.97,WNW,297,0.0,1.0,86,0.00,,,0.00,WUHU216DAVISVP2,2013-10-22 05:26:00,
2013-10-22 01:31:00,75.3,70.8,29.97,WNW,297,0.0,1.0,86,0.00,,,0.00,WUHU216DAVISVP2,2013-10-22 05:31:00,
2013-10-22 01:36:00,75.3,70.8,29.97,NW,311,0.0,2.0,86,0.00,,,0.00,WUHU216DAVISVP2,2013-10-22 05:36:00,
2013-10-22 01:41:00,75.3,70.8,29.97,NW,311,0.0,2.0,86,0.00,,,0.00,WUHU216DAVISVP2,2013-10-22 05:41:00,
2013-10-22 01:46:00,75.3,70.8,29.97,NW,311,0.0,1.0,86,0.00,,,0.00,WUHU216DAVISVP2,2013-10-22 05:46:00,
2013-10-22 01:51:00,75.2,70.8,29.97,NW,311,0.0,0.0,86,0.00,,,0.00,WUHU216DAVISVP2,2013-10-22 05:51:00,
2013-10-22 01:56:00,75.2,70.8,29.97,NW,311,0.0,0.0,86,0.00,,,0.00,WUHU216DAVISVP2,2013-10-22 05:56:00,
2013-10-22 02:01:00,75.2,70.8,29.97,NW,311,0.0,0.0,86,0.00,,,0.00,WUHU216DAVISVP2,2013-10-22 06:01:00,
2013-10-22 02:06:00,75.2,70.8,29.97,NW,311,0.0,1.0,86,0.00,,,0.00,WUHU216DAVISVP2,2013-10-22 06:06:00,
2013-10-22 02:11:00,75.2,70.8,29.97,NW,311,0.0,1.0,86,0.00,,,0.00,WUHU216DAVISVP2,2013-10-22 06:11:00,
2013-10-22 02:16:00,75.3,70.8,29.97,NW,311,0.0,1.0,86,0.00,,,0.00,WUHU216DAVISVP2,2013-10-22 06:16:00,
2013-10-22 02:21:00,75.3,70.8,29.97,NW,311,0.0,1.0,86,0.00,,,0.00,WUHU216DAVISVP2,2013-10-22 06:21:00,
2013-10-22 02:26:00,75.4,70.9,29.97,NW,311,0.0,1.0,86,0.00,,,0.00,WUHU216DAVISVP2,2013-10-22 06:26:00,
2013-10-22 02:31:00,75.4,70.9,29.97,NW,311,0.0,1.0,86,0.00,,,0.00,WUHU216DAVISVP2,2013-10-22 06:31:00,
2013-10-22 02:36:00,75.5,71.0,29.97,NNW,341,0.0,3.0,86,0.00,,,0.00,WUHU216DAVISVP2,2013-10-22 06:36:00,
2013-10-22 02:41:00,75.5,71.0,29.96,West,269,0.0,3.0,86,0.00,,,0.00,WUHU216DAVISVP2,2013-10-22 06:41:00,
2013-10-22 02:46:00,75.5,71.0,29.96,North,351,0.0,1.0,86,0.00,,,0.00,WUHU216DAVISVP2,2013-10-22 06:46:00,
2013-10-22 02:51:00,75.6,71.1,29.96,NNW,328,0.0,3.0,86,0.00,,,0.00,WUHU216DAVISVP2,2013-10-22 06:51:00,
2013-10-22 02:56:00,75.6,71.1,29.95,NNW,334,0.0,3.0,86,0.00,,,0.00,WUHU216DAVISVP2,2013-10-22 06:56:00,
2013-10-22 03:01:00,75.7,71.2,29.96,NW,314,0.0,3.0,86,0.00,,,0.00,WUHU216DAVISVP2,2013-10-22 07:01:00,
2013-10-22 03:06:00,75.7,71.2,29.95,NW,314,0.0,1.0,86,0.00,,,0.00,WUHU216DAVISVP2,2013-10-22 07:06:00,
2013-10-22 03:11:00,75.7,71.2,29.95,NW,314,0.0,0.0,86,0.00,,,0.00,WUHU216DAVISVP2,2013-10-22 07:11:00,
2013-10-22 03:16:00,75.7,71.2,29.95,NW,314,0.0,1.0,86,0.00,,,0.00,WUHU216DAVISVP2,2013-10-22 07:16:00,
2013-10-22 03:21:00,75.7,71.2,29.95,NW,314,0.0,1.0,86,0.00,,,0.00,WUHU216DAVISVP2,2013-10-22 07:21:00,
2013-10-22 03:26:00,75.7,71.2,29.95,NW,314,0.0,0.0,86,0.00,,,0.00,WUHU216DAVISVP2,2013-10-22 07:26:00,
2013-10-22 03:31:00,75.7,71.2,29.95,NW,314,0.0,0.0,86,0.00,,,0.00,WUHU216DAVISVP2,2013-10-22 07:31:00,
2013-10-22 03:36:00,75.7,71.2,29.95,NW,314,0.0,0.0,86,0.00,,,0.00,WUHU216DAVISVP2,2013-10-22 07:36:00,
2013-10-22 03:41:00,75.7,71.2,29.94,NW,314,0.0,0.0,86,0.00,,,0.00,WUHU216DAVISVP2,2013-10-22 07:41:00,
2013-10-22 03:46:00,75.7,71.2,29.95,NW,314,0.0,0.0,86,0.00,,,0.00,WUHU216DAVISVP2,2013-10-22 07:46:00,
2013-10-22 03:51:00,75.7,71.2,29.94,NW,314,0.0,0.0,86,0.00,,,0.00,WUHU216DAVISVP2,2013-10-22 07:51:00,
2013-10-22 03:56:00,75.7,71.2,29.94,NW,314,0.0,1.0,86,0.00,,,0.00,WUHU216DAVISVP2,2013-10-22 07:56:00,
2013-10-22 04:01:00,75.7,71.2,29.95,NW,314,0.0,1.0,86,0.00,,,0.00,WUHU216DAVISVP2,2013-10-22 08:01:00,
2013-10-22 04:06:00,75.7,71.2,29.94,NW,314,0.0,1.0,86,0.00,,,0.00,WUHU216DAVISVP2,2013-10-22 08:06:00,
2013-10-22 04:11:00,75.7,71.2,29.94,NW,314,0.0,1.0,86,0.00,,,0.00,WUHU216DAVISVP2,2013-10-22 08:11:00,
2013-10-22 04:16:00,75.7,71.2,29.93,NW,314,0.0,1.0,86,0.00,,,0.00,WUHU216DAVISVP2,2013-10-22 08:16:00,
2013-10-22 04:21:00,75.7,71.2,29.93,NW,314,0.0,1.0,86,0.00,,,0.00,WUHU216DAVISVP2,2013-10-22 08:21:00,
2013-10-22 04:26:00,75.6,71.1,29.93,NW,321,0.0,1.0,86,0.00,,,0.00,WUHU216DAVISVP2,2013-10-22 08:26:00,
2013-10-22 04:31:00,75.6,71.1,29.93,NW,321,0.0,1.0,86,0.00,,,0.00,WUHU216DAVISVP2,2013-10-22 08:31:00,
2013-10-22 04:36:00,75.5,71.0,29.93,NW,321,0.0,1.0,86,0.00,,,0.00,WUHU216DAVISVP2,2013-10-22 08:36:00,
2013-10-22 04:41:00,75.5,71.0,29.92,NW,321,0.0,1.0,86,0.00,,,0.00,WUHU216DAVISVP2,2013-10-22 08:41:00,
2013-10-22 04:46:00,75.4,70.9,29.92,NW,322,0.0,1.0,86,0.00,,,0.00,WUHU216DAVISVP2,2013-10-22 08:46:00,
2013-10-22 04:51:00,75.4,70.9,29.92,NW,322,0.0,1.0,86,0.00,,,0.00,WUHU216DAVISVP2,2013-10-22 08:51:00,
2013-10-22 04:56:00,75.3,70.8,29.92,NW,322,0.0,1.0,86,0.00,,,0.00,WUHU216DAVISVP2,2013-10-22 08:56:00,
2013-10-22 05:01:00,75.3,70.8,29.92,NW,322,0.0,1.0,86,0.00,,,0.00,WUHU216DAVISVP2,2013-10-22 09:01:00,
2013-10-22 05:06:00,75.2,70.8,29.92,NW,322,0.0,1.0,86,0.00,,,0.00,WUHU216DAVISVP2,2013-10-22 09:06:00,
2013-10-22 05:11:00,75.2,70.8,29.93,NW,322,0.0,0.0,86,0.00,,,0.00,WUHU216DAVISVP2,2013-10-22 09:11:00,
2013-10-22 05:16:00,75.2,70.8,29.92,NW,322,0.0,0.0,86,0.00,,,0.00,WUHU216DAVISVP2,2013-10-22 09:16:00,
2013-10-22 05:21:00,75.1,70.7,29.92,NW,322,0.0,0.0,86,0.00,,,0.00,WUHU216DAVISVP2,2013-10-22 09:21:00,
2013-10-22 05:26:00,75.1,70.7,29.92,NW,322,0.0,0.0,86,0.00,,,0.00,WUHU216DAVISVP2,2013-10-22 09:26:00,
2013-10-22 05:31:00,75.0,70.6,29.92,NW,322,0.0,0.0,86,0.00,,,0.00,WUHU216DAVISVP2,2013-10-22 09:31:00,
2013-10-22 05:36:00,75.0,70.9,29.92,NW,322,0.0,1.0,87,0.00,,,0.00,WUHU216DAVISVP2,2013-10-22 09:36:00,
2013-10-22 05:41:00,75.0,70.9,29.93,NW,322,0.0,1.0,87,0.00,,,0.00,WUHU216DAVISVP2,2013-10-22 09:41:00,
2013-10-22 05:46:00,74.9,70.8,29.93,NW,322,0.0,0.0,87,0.00,,,0.00,WUHU216DAVISVP2,2013-10-22 09:46:00,
2013-10-22 05:51:00,74.9,70.8,29.93,NW,322,0.0,0.0,87,0.00,,,0.00,WUHU216DAVISVP2,2013-10-22 09:51:00,
2013-10-22 05:56:00,74.8,70.7,29.93,NW,322,0.0,0.0,87,0.00,,,0.00,WUHU216DAVISVP2,2013-10-22 09:56:00,
2013-10-22 06:01:00,74.8,70.7,29.93,NW,322,0.0,0.0,87,0.00,,,0.00,WUHU216DAVISVP2,2013-10-22 10:01:00,
2013-10-22 06:06:00,74.8,70.7,29.93,NW,322,0.0,0.0,87,0.00,,,0.00,WUHU216DAVISVP2,2013-10-22 10:06:00,
2013-10-22 06:11:00,74.8,70.7,29.93,NW,322,0.0,0.0,87,0.00,,,0.00,WUHU216DAVISVP2,2013-10-22 10:11:00,
2013-10-22 06:16:00,74.8,70.7,29.93,NW,322,0.0,0.0,87,0.00,,,0.00,WUHU216DAVISVP2,2013-10-22 10:16:00,
2013-10-22 06:21:00,74.8,70.7,29.93,NW,322,0.0,0.0,87,0.00,,,0.00,WUHU216DAVISVP2,2013-10-22 10:21:00,
2013-10-22 06:26:00,74.7,70.6,29.93,NW,322,0.0,0.0,87,0.00,,,0.00,WUHU216DAVISVP2,2013-10-22 10:26:00,
2013-10-22 06:31:00,74.7,70.6,29.93,NW,322,0.0,1.0,87,0.00,,,0.00,WUHU216DAVISVP2,2013-10-22 10:31:00,
2013-10-22 06:36:00,74.8,70.7,29.93,NW,322,0.0,1.0,87,0.00,,,0.00,WUHU216DAVISVP2,2013-10-22 10:36:00,
2013-10-22 06:41:00,74.8,70.7,29.93,NW,322,0.0,0.0,87,0.00,,,0.00,WUHU216DAVISVP2,2013-10-22 10:41:00,
2013-10-22 06:46:00,74.8,70.7,29.93,NW,322,0.0,0.0,87,0.00,,,0.00,WUHU216DAVISVP2,2013-10-22 10:46:00,
2013-10-22 06:51:00,74.9,70.8,29.93,NW,322,0.0,1.0,87,0.00,,,0.00,WUHU216DAVISVP2,2013-10-22 10:51:00,
2013-10-22 06:56:00,74.9,70.8,29.93,NW,322,0.0,1.0,87,0.00,,,0.00,WUHU216DAVISVP2,2013-10-22 10:56:00,
2013-10-22 07:01:00,75.0,70.9,29.93,NW,322,0.0,1.0,87,0.00,,,0.00,WUHU216DAVISVP2,2013-10-22 11:01:00,
2013-10-22 07:06:00,75.1,71.0,29.93,NW,322,0.0,1.0,87,0.00,,,0.00,WUHU216DAVISVP2,2013-10-22 11:06:00,
2013-10-22 07:11:00,75.1,71.0,29.94,NW,322,0.0,1.0,87,0.00,,,0.00,WUHU216DAVISVP2,2013-10-22 11:11:00,
2013-10-22 07:16:00,75.2,71.1,29.93,NW,322,1.0,1.0,87,0.00,,,0.00,WUHU216DAVISVP2,2013-10-22 11:16:00,
2013-10-22 07:21:00,75.2,71.1,29.93,NW,322,0.0,1.0,87,0.00,,,0.00,WUHU216DAVISVP2,2013-10-22 11:21:00,
2013-10-22 07:26:00,75.3,71.2,29.93,NW,323,0.0,1.0,87,0.00,,,0.00,WUHU216DAVISVP2,2013-10-22 11:26:00,
2013-10-22 07:31:00,75.4,71.3,29.93,NW,322,0.0,1.0,87,0.00,,,0.00,WUHU216DAVISVP2,2013-10-22 11:31:00,
2013-10-22 07:36:00,75.4,71.3,29.93,West,271,0.0,3.0,87,0.00,,,0.00,WUHU216DAVISVP2,2013-10-22 11:36:00,
2013-10-22 07:41:00,75.5,71.4,29.93,West,271,1.0,3.0,87,0.00,,,0.00,WUHU216DAVISVP2,2013-10-22 11:41:00,
2013-10-22 07:46:00,75.5,71.4,29.93,West,271,0.0,2.0,87,0.00,,,0.00,WUHU216DAVISVP2,2013-10-22 11:46:00,
2013-10-22 07:51:00,75.5,71.4,29.93,West,271,0.0,1.0,87,0.00,,,0.00,WUHU216DAVISVP2,2013-10-22 11:51:00,
2013-10-22 07:56:00,75.5,71.4,29.93,NW,326,0.0,2.0,87,0.00,,,0.00,WUHU216DAVISVP2,2013-10-22 11:56:00,
2013-10-22 08:01:00,75.5,71.4,29.93,NW,325,0.0,2.0,87,0.00,,,0.00,WUHU216DAVISVP2,2013-10-22 12:01:00,
2013-10-22 08:06:00,75.5,71.4,29.93,NW,325,0.0,1.0,87,0.00,,,0.00,WUHU216DAVISVP2,2013-10-22 12:06:00,
2013-10-22 08:11:00,75.5,71.4,29.93,NW,325,0.0,1.0,87,0.00,,,0.00,WUHU216DAVISVP2,2013-10-22 12:11:00,
2013-10-22 08:16:00,75.6,71.5,29.93,NW,325,0.0,1.0,87,0.00,,,0.00,WUHU216DAVISVP2,2013-10-22 12:16:00,
2013-10-22 08:21:00,75.6,71.5,29.93,NW,308,1.0,3.0,87,0.00,,,0.00,WUHU216DAVISVP2,2013-10-22 12:21:00,
2013-10-22 08:26:00,75.6,71.5,29.93,NNW,332,4.0,4.0,87,0.00,,,0.00,WUHU216DAVISVP2,2013-10-22 12:26:00,
2013-10-22 08:31:00,75.6,71.5,29.92,NNW,331,0.0,4.0,87,0.00,,,0.00,WUHU216DAVISVP2,2013-10-22 12:31:00,
2013-10-22 08:36:00,75.7,71.6,29.92,NNW,335,0.0,4.0,87,0.00,,,0.00,WUHU216DAVISVP2,2013-10-22 12:36:00,
2013-10-22 08:41:00,75.8,71.7,29.92,NW,319,0.0,4.0,87,0.00,,,0.00,WUHU216DAVISVP2,2013-10-22 12:41:00,
2013-10-22 08:46:00,75.9,71.8,29.92,NW,325,0.0,3.0,87,0.00,,,0.00,WUHU216DAVISVP2,2013-10-22 12:46:00,
2013-10-22 08:51:00,75.9,71.8,29.92,NNW,331,0.0,4.0,87,0.00,,,0.00,WUHU216DAVISVP2,2013-10-22 12:51:00,
2013-10-22 08:56:00,76.0,71.9,29.92,WNW,302,0.0,5.0,87,0.00,,,0.00,WUHU216DAVISVP2,2013-10-22 12:56:00,
2013-10-22 09:01:00,76.0,71.9,29.93,NW,322,0.0,5.0,87,0.00,,,0.00,WUHU216DAVISVP2,2013-10-22 13:01:00,
2013-10-22 09:06:00,76.1,71.6,29.92,NW,313,0.0,4.0,86,0.00,,,0.00,WUHU216DAVISVP2,2013-10-22 13:06:00,
2013-10-22 09:11:00,76.1,71.6,29.92,NW,323,2.0,3.0,86,0.00,,,0.00,WUHU216DAVISVP2,2013-10-22 13:11:00,
2013-10-22 09:16:00,76.2,71.7,29.93,West,277,0.0,2.0,86,0.00,,,0.00,WUHU216DAVISVP2,2013-10-22 13:16:00,
2013-10-22 09:21:00,76.1,71.6,29.93,West,262,2.0,2.0,86,0.00,,,0.00,WUHU216DAVISVP2,2013-10-22 13:21:00,
2013-10-22 09:26:00,76.1,71.6,29.92,NW,313,0.0,4.0,86,0.00,,,0.00,WUHU216DAVISVP2,2013-10-22 13:26:00,
2013-10-22 09:31:00,76.0,71.9,29.92,NW,314,0.0,4.0,87,0.01,,,0.01,WUHU216DAVISVP2,2013-10-22 13:31:00,
2013-10-22 09:36:00,75.9,71.8,29.93,West,267,2.0,2.0,87,0.02,,,0.02,WUHU216DAVISVP2,2013-10-22 13:36:00,
2013-10-22 09:41:00,75.8,71.7,29.93,NW,326,0.0,2.0,87,0.02,,,0.02,WUHU216DAVISVP2,2013-10-22 13:41:00,
2013-10-22 09:46:00,75.7,71.6,29.93,NW,326,0.0,2.0,87,0.03,,,0.03,WUHU216DAVISVP2,2013-10-22 13:46:00,
2013-10-22 09:51:00,75.6,71.5,29.92,NW,306,0.0,1.0,87,0.08,,,0.08,WUHU216DAVISVP2,2013-10-22 13:51:00,
2013-10-22 09:56:00,75.5,71.4,29.92,NW,307,0.0,1.0,87,0.14,,,0.14,WUHU216DAVISVP2,2013-10-22 13:56:00,
2013-10-22 10:01:00,75.4,71.3,29.92,NW,307,0.0,1.0,87,0.22,,,0.22,WUHU216DAVISVP2,2013-10-22 14:01:00,
2013-10-22 10:06:00,75.3,71.2,29.92,NW,307,0.0,0.0,87,0.24,,,0.24,WUHU216DAVISVP2,2013-10-22 14:06:00,
2013-10-22 10:11:00,75.3,71.2,29.93,NW,307,0.0,1.0,87,0.25,,,0.25,WUHU216DAVISVP2,2013-10-22 14:11:00,
2013-10-22 10:16:00,75.2,71.4,29.93,NW,307,0.0,1.0,88,0.28,,,0.28,WUHU216DAVISVP2,2013-10-22 14:16:00,
2013-10-22 10:21:00,75.2,71.4,29.92,NW,307,0.0,1.0,88,0.32,,,0.32,WUHU216DAVISVP2,2013-10-22 14:21:00,
2013-10-22 10:26:00,75.1,71.3,29.92,NW,307,0.0,1.0,88,0.35,,,0.35,WUHU216DAVISVP2,2013-10-22 14:26:00,
2013-10-22 10:31:00,75.2,71.4,29.92,WNW,290,0.0,1.0,88,0.39,,,0.41,WUHU216DAVISVP2,2013-10-22 14:31:00,
2013-10-22 10:36:00,75.0,71.2,29.92,WNW,290,0.0,1.0,88,0.43,,,0.45,WUHU216DAVISVP2,2013-10-22 14:36:00,
2013-10-22 10:41:00,74.9,71.1,29.92,WNW,292,0.0,1.0,88,0.44,,,0.46,WUHU216DAVISVP2,2013-10-22 14:41:00,
2013-10-22 10:46:00,74.9,71.1,29.92,WNW,298,0.0,1.0,88,0.43,,,0.46,WUHU216DAVISVP2,2013-10-22 14:46:00,
2013-10-22 10:51:00,74.9,71.1,29.92,WNW,298,0.0,1.0,88,0.38,,,0.46,WUHU216DAVISVP2,2013-10-22 14:51:00,
2013-10-22 10:56:00,74.9,71.1,29.92,WNW,298,0.0,1.0,88,0.32,,,0.46,WUHU216DAVISVP2,2013-10-22 14:56:00,
2013-10-22 11:01:00,75.0,71.2,29.92,WNW,298,0.0,1.0,88,0.24,,,0.46,WUHU216DAVISVP2,2013-10-22 15:01:00,
2013-10-22 11:06:00,75.1,71.3,29.91,WNW,299,0.0,1.0,88,0.22,,,0.46,WUHU216DAVISVP2,2013-10-22 15:06:00,
2013-10-22 11:11:00,75.1,71.3,29.91,WNW,299,0.0,1.0,88,0.21,,,0.46,WUHU216DAVISVP2,2013-10-22 15:11:00,
2013-10-22 11:16:00,75.1,71.3,29.91,WNW,299,0.0,1.0,88,0.18,,,0.46,WUHU216DAVISVP2,2013-10-22 15:16:00,
2013-10-22 11:21:00,75.3,71.5,29.91,WNW,299,0.0,0.0,88,0.14,,,0.46,WUHU216DAVISVP2,2013-10-22 15:21:00,
2013-10-22 11:26:00,75.5,71.7,29.91,WNW,299,0.0,0.0,88,0.11,,,0.46,WUHU216DAVISVP2,2013-10-22 15:26:00,
2013-10-22 11:31:00,75.7,72.2,29.91,NW,323,1.0,1.0,89,0.06,,,0.46,WUHU216DAVISVP2,2013-10-22 15:31:00,
2013-10-22 11:36:00,75.7,72.2,29.91,NW,325,0.0,3.0,89,0.01,,,0.46,WUHU216DAVISVP2,2013-10-22 15:36:00,
2013-10-22 11:41:00,75.8,72.3,29.91,NNW,333,0.0,3.0,89,0.00,,,0.46,WUHU216DAVISVP2,2013-10-22 15:41:00,
2013-10-22 11:46:00,75.9,72.4,29.91,NNW,333,0.0,1.0,89,0.00,,,0.46,WUHU216DAVISVP2,2013-10-22 15:46:00,
2013-10-22 11:51:00,76.1,72.3,29.91,NNW,332,0.0,1.0,88,0.00,,,0.46,WUHU216DAVISVP2,2013-10-22 15:51:00,
2013-10-22 11:56:00,76.1,72.3,29.91,NNW,327,0.0,1.0,88,0.00,,,0.46,WUHU216DAVISVP2,2013-10-22 15:56:00,
2013-10-22 12:01:00,75.8,72.0,29.91,NW,326,0.0,1.0,88,0.00,,,0.46,WUHU216DAVISVP2,2013-10-22 16:01:00,
2013-10-22 12:06:00,75.6,71.8,29.91,West,270,0.0,4.0,88,0.00,,,0.46,WUHU216DAVISVP2,2013-10-22 16:06:00,
2013-10-22 12:11:00,75.5,71.7,29.91,West,276,0.0,4.0,88,0.00,,,0.46,WUHU216DAVISVP2,2013-10-22 16:11:00,
2013-10-22 12:16:00,75.4,71.3,29.90,NW,311,0.0,1.0,87,0.00,,,0.46,WUHU216DAVISVP2,2013-10-22 16:16:00,
2013-10-22 12:21:00,75.4,71.3,29.90,West,263,0.0,3.0,87,0.00,,,0.46,WUHU216DAVISVP2,2013-10-22 16:21:00,
2013-10-22 12:26:00,75.5,71.7,29.90,West,271,0.0,4.0,88,0.00,,,0.46,WUHU216DAVISVP2,2013-10-22 16:26:00,
2013-10-22 12:31:00,75.5,71.4,29.90,WNW,302,0.0,4.0,87,0.00,,,0.46,WUHU216DAVISVP2,2013-10-22 16:31:00,
2013-10-22 12:36:00,75.7,71.6,29.90,WNW,302,0.0,2.0,87,0.00,,,0.46,WUHU216DAVISVP2,2013-10-22 16:36:00,
2013-10-22 12:41:00,75.8,71.7,29.90,WNW,302,0.0,2.0,87,0.00,,,0.46,WUHU216DAVISVP2,2013-10-22 16:41:00,
2013-10-22 12:46:00,75.8,71.7,29.90,WNW,299,0.0,1.0,87,0.00,,,0.46,WUHU216DAVISVP2,2013-10-22 16:46:00,
2013-10-22 12:50:00,75.7,71.6,29.89,NNW,344,0.0,4.0,87,0.00,,,0.46,WUHU216DAVISVP2,2013-10-22 16:50:00,
2013-10-22 12:55:00,75.7,71.6,29.89,NNW,327,0.0,4.0,87,0.00,,,0.46,WUHU216DAVISVP2,2013-10-22 16:55:00,
2013-10-22 13:00:00,75.8,71.7,29.89,West,267,0.0,3.0,87,0.00,,,0.46,WUHU216DAVISVP2,2013-10-22 17:00:00,
2013-10-22 13:05:00,75.9,71.8,29.88,NNW,329,0.0,3.0,87,0.00,,,0.46,WUHU216DAVISVP2,2013-10-22 17:05:00,
2013-10-22 13:10:00,75.9,71.4,29.88,NNW,329,0.0,3.0,86,0.00,,,0.46,WUHU216DAVISVP2,2013-10-22 17:10:00,
2013-10-22 13:15:00,76.0,71.9,29.88,NW,317,0.0,0.0,87,0.00,,,0.46,WUHU216DAVISVP2,2013-10-22 17:15:00,
2013-10-22 13:20:00,76.2,72.1,29.88,NNW,340,0.0,3.0,87,0.00,,,0.46,WUHU216DAVISVP2,2013-10-22 17:20:00,
2013-10-22 13:25:00,76.1,71.6,29.87,NW,315,0.0,3.0,86,0.00,,,0.46,WUHU216DAVISVP2,2013-10-22 17:25:00,
2013-10-22 13:30:00,76.2,71.7,29.88,NW,308,0.0,2.0,86,0.00,,,0.46,WUHU216DAVISVP2,2013-10-22 17:30:00,
2013-10-22 13:35:00,76.2,71.7,29.87,NW,308,0.0,1.0,86,0.00,,,0.46,WUHU216DAVISVP2,2013-10-22 17:35:00,
2013-10-22 13:40:00,76.4,71.9,29.87,NW,309,0.0,0.0,86,0.00,,,0.46,WUHU216DAVISVP2,2013-10-22 17:40:00,
2013-10-22 13:45:00,76.4,71.9,29.87,NW,321,0.0,3.0,86,0.00,,,0.46,WUHU216DAVISVP2,2013-10-22 17:45:00,
2013-10-22 13:50:00,76.6,72.5,29.87,NNW,346,0.0,3.0,87,0.00,,,0.46,WUHU216DAVISVP2,2013-10-22 17:50:00,
2013-10-22 13:55:00,76.9,72.4,29.87,West,260,0.0,3.0,86,0.00,,,0.46,WUHU216DAVISVP2,2013-10-22 17:55:00,
2013-10-22 14:00:00,77.0,72.5,29.86,West,259,0.0,4.0,86,0.00,,,0.46,WUHU216DAVISVP2,2013-10-22 18:00:00,
2013-10-22 14:05:00,77.0,72.5,29.86,West,280,0.0,4.0,86,0.00,,,0.46,WUHU216DAVISVP2,2013-10-22 18:05:00,
2013-10-22 14:10:00,77.0,72.5,29.86,NNW,329,5.0,5.0,86,0.00,,,0.46,WUHU216DAVISVP2,2013-10-22 18:10:00,
2013-10-22 14:15:00,76.9,72.4,29.86,NW,326,0.0,5.0,86,0.00,,,0.46,WUHU216DAVISVP2,2013-10-22 18:15:00,
2013-10-22 14:20:00,76.8,72.0,29.86,NNW,328,0.0,4.0,85,0.00,,,0.46,WUHU216DAVISVP2,2013-10-22 18:20:00,
2013-10-22 14:25:00,76.8,72.3,29.85,NW,304,0.0,1.0,86,0.00,,,0.46,WUHU216DAVISVP2,2013-10-22 18:25:00,
2013-10-22 14:30:00,76.8,72.0,29.85,NW,326,0.0,5.0,85,0.00,,,0.46,WUHU216DAVISVP2,2013-10-22 18:30:00,
2013-10-22 14:35:00,76.8,72.0,29.85,NW,304,0.0,5.0,85,0.00,,,0.46,WUHU216DAVISVP2,2013-10-22 18:35:00,
2013-10-22 14:40:00,76.9,72.1,29.85,WNW,299,0.0,5.0,85,0.00,,,0.46,WUHU216DAVISVP2,2013-10-22 18:40:00,
2013-10-22 14:45:00,76.8,72.0,29.85,West,276,1.0,3.0,85,0.00,,,0.46,WUHU216DAVISVP2,2013-10-22 18:45:00,
2013-10-22 14:50:00,76.8,72.0,29.84,NW,311,0.0,3.0,85,0.00,,,0.46,WUHU216DAVISVP2,2013-10-22 18:50:00,
2013-10-22 14:55:00,76.8,72.0,29.84,NNW,333,0.0,3.0,85,0.00,,,0.46,WUHU216DAVISVP2,2013-10-22 18:55:00,
2013-10-22 15:00:00,76.8,72.0,29.84,WSW,257,0.0,4.0,85,0.00,,,0.46,WUHU216DAVISVP2,2013-10-22 19:00:00,
2013-10-22 15:05:00,76.9,72.1,29.84,NNW,327,3.0,4.0,85,0.00,,,0.46,WUHU216DAVISVP2,2013-10-22 19:05:00,
2013-10-22 15:10:00,77.0,72.2,29.83,NNW,333,0.0,3.0,85,0.00,,,0.46,WUHU216DAVISVP2,2013-10-22 19:10:00,
2013-10-22 15:15:00,77.2,72.4,29.84,West,266,0.0,3.0,85,0.00,,,0.46,WUHU216DAVISVP2,2013-10-22 19:15:00,
2013-10-22 15:20:00,77.2,72.4,29.83,West,279,0.0,5.0,85,0.00,,,0.46,WUHU216DAVISVP2,2013-10-22 19:20:00,
2013-10-22 15:25:00,77.1,72.3,29.83,WNW,291,2.0,5.0,85,0.00,,,0.46,WUHU216DAVISVP2,2013-10-22 19:25:00,
2013-10-22 15:30:00,77.0,72.2,29.83,West,281,0.0,4.0,85,0.00,,,0.46,WUHU216DAVISVP2,2013-10-22 19:30:00,
2013-10-22 15:35:00,77.0,72.2,29.83,WSW,238,2.0,6.0,85,0.00,,,0.46,WUHU216DAVISVP2,2013-10-22 19:35:00,
2013-10-22 15:40:00,77.1,72.3,29.82,NNE,13,0.0,6.0,85,0.00,,,0.46,WUHU216DAVISVP2,2013-10-22 19:40:00,
2013-10-22 15:45:00,77.0,72.2,29.83,NNW,327,0.0,3.0,85,0.00,,,0.46,WUHU216DAVISVP2,2013-10-22 19:45:00,
2013-10-22 15:50:00,76.9,72.1,29.82,NNW,337,0.0,5.0,85,0.00,,,0.46,WUHU216DAVISVP2,2013-10-22 19:50:00,
2013-10-22 15:55:00,76.9,72.1,29.82,West,267,0.0,5.0,85,0.00,,,0.46,WUHU216DAVISVP2,2013-10-22 19:55:00,
2013-10-22 16:00:00,76.8,72.0,29.82,West,268,1.0,4.0,85,0.00,,,0.46,WUHU216DAVISVP2,2013-10-22 20:00:00,
2013-10-22 16:05:00,76.7,71.9,29.82,WNW,284,0.0,4.0,85,0.00,,,0.46,WUHU216DAVISVP2,2013-10-22 20:05:00,
2013-10-22 16:10:00,76.7,71.9,29.82,WSW,252,0.0,3.0,85,0.00,,,0.46,WUHU216DAVISVP2,2013-10-22 20:10:00,
2013-10-22 16:15:00,76.6,71.8,29.82,NNW,336,0.0,4.0,85,0.00,,,0.46,WUHU216DAVISVP2,2013-10-22 20:15:00,
2013-10-22 16:20:00,76.5,72.0,29.82,West,269,0.0,4.0,86,0.00,,,0.46,WUHU216DAVISVP2,2013-10-22 20:20:00,
2013-10-22 16:25:00,76.4,71.9,29.82,NW,307,0.0,2.0,86,0.00,,,0.46,WUHU216DAVISVP2,2013-10-22 20:25:00,
2013-10-22 16:30:00,76.4,71.9,29.82,WNW,288,0.0,2.0,86,0.00,,,0.46,WUHU216DAVISVP2,2013-10-22 20:30:00,
2013-10-22 16:35:00,76.3,71.8,29.82,NNW,333,0.0,3.0,86,0.00,,,0.46,WUHU216DAVISVP2,2013-10-22 20:35:00,
2013-10-22 16:40:00,76.2,71.7,29.82,NNW,329,0.0,3.0,86,0.00,,,0.46,WUHU216DAVISVP2,2013-10-22 20:40:00,
2013-10-22 16:45:00,76.1,71.6,29.82,West,259,0.0,4.0,86,0.00,,,0.46,WUHU216DAVISVP2,2013-10-22 20:45:00,
2013-10-22 16:50:00,76.1,71.6,29.82,NW,311,0.0,4.0,86,0.00,,,0.46,WUHU216DAVISVP2,2013-10-22 20:50:00,
2013-10-22 16:55:00,76.1,71.6,29.82,NNW,332,0.0,6.0,86,0.00,,,0.46,WUHU216DAVISVP2,2013-10-22 20:55:00,
2013-10-22 17:00:00,76.0,71.5,29.81,West,260,0.0,6.0,86,0.00,,,0.46,WUHU216DAVISVP2,2013-10-22 21:00:00,
2013-10-22 17:05:00,75.8,71.3,29.82,WNW,293,1.0,4.0,86,0.00,,,0.46,WUHU216DAVISVP2,2013-10-22 21:05:00,
2013-10-22 17:10:00,75.7,71.2,29.82,NNW,329,0.0,5.0,86,0.00,,,0.46,WUHU216DAVISVP2,2013-10-22 21:10:00,
2013-10-22 17:15:00,75.7,71.2,29.81,West,281,0.0,5.0,86,0.00,,,0.46,WUHU216DAVISVP2,2013-10-22 21:15:00,
2013-10-22 17:20:00,75.6,71.1,29.81,NW,325,0.0,5.0,86,0.00,,,0.46,WUHU216DAVISVP2,2013-10-22 21:20:00,
2013-10-22 17:25:00,75.6,71.1,29.82,West,271,0.0,3.0,86,0.00,,,0.46,WUHU216DAVISVP2,2013-10-22 21:25:00,
2013-10-22 17:30:00,75.6,71.1,29.82,West,261,1.0,3.0,86,0.00,,,0.46,WUHU216DAVISVP2,2013-10-22 21:30:00,
2013-10-22 17:35:00,75.6,71.1,29.82,NNW,338,3.0,3.0,86,0.00,,,0.46,WUHU216DAVISVP2,2013-10-22 21:35:00,
2013-10-22 17:40:00,75.5,71.0,29.82,West,281,0.0,3.0,86,0.00,,,0.46,WUHU216DAVISVP2,2013-10-22 21:40:00,
2013-10-22 17:45:00,75.5,71.0,29.83,WSW,257,0.0,5.0,86,0.00,,,0.46,WUHU216DAVISVP2,2013-10-22 21:45:00,
2013-10-22 17:50:00,75.5,71.0,29.83,NW,317,0.0,5.0,86,0.00,,,0.46,WUHU216DAVISVP2,2013-10-22 21:50:00,
2013-10-22 17:55:00,75.5,71.0,29.83,WNW,286,1.0,4.0,86,0.00,,,0.46,WUHU216DAVISVP2,2013-10-22 21:55:00,
2013-10-22 18:00:00,75.5,71.0,29.82,West,277,3.0,4.0,86,0.00,,,0.46,WUHU216DAVISVP2,2013-10-22 22:00:00,
2013-10-22 18:05:00,75.4,70.9,29.82,NNW,343,2.0,4.0,86,0.00,,,0.46,WUHU216DAVISVP2,2013-10-22 22:05:00,
2013-10-22 18:10:00,75.3,70.5,29.82,NW,306,0.0,4.0,85,0.00,,,0.46,WUHU216DAVISVP2,2013-10-22 22:10:00,
2013-10-22 18:15:00,75.3,70.5,29.82,NNW,344,2.0,4.0,85,0.00,,,0.46,WUHU216DAVISVP2,2013-10-22 22:15:00,
2013-10-22 18:20:00,75.2,70.8,29.82,NNW,336,0.0,3.0,86,0.03,,,0.49,WUHU216DAVISVP2,2013-10-22 22:20:00,
2013-10-22 18:25:00,75.1,70.7,29.82,NNW,335,0.0,3.0,86,0.12,,,0.58,WUHU216DAVISVP2,2013-10-22 22:25:00,
2013-10-22 18:30:00,74.9,70.5,29.82,NW,315,0.0,0.0,86,0.17,,,0.63,WUHU216DAVISVP2,2013-10-22 22:30:00,
2013-10-22 18:35:00,74.7,70.3,29.83,WNW,284,0.0,1.0,86,0.17,,,0.63,WUHU216DAVISVP2,2013-10-22 22:35:00,
2013-10-22 18:40:00,74.5,70.4,29.83,WNW,284,0.0,1.0,87,0.20,,,0.66,WUHU216DAVISVP2,2013-10-22 22:40:00,
2013-10-22 18:45:00,74.4,70.3,29.83,West,265,0.0,1.0,87,0.22,,,0.68,WUHU216DAVISVP2,2013-10-22 22:45:00,
2013-10-22 18:50:00,74.2,70.1,29.83,WNW,290,0.0,1.0,87,0.24,,,0.70,WUHU216DAVISVP2,2013-10-22 22:50:00,
2013-10-22 18:55:00,74.1,70.0,29.83,WNW,290,0.0,1.0,87,0.26,,,0.72,WUHU216DAVISVP2,2013-10-22 22:55:00,
2013-10-22 19:00:00,74.0,69.9,29.83,WSW,248,0.0,4.0,87,0.30,,,0.76,WUHU216DAVISVP2,2013-10-22 23:00:00,
2013-10-22 19:05:00,73.9,69.8,29.83,WSW,248,0.0,4.0,87,0.33,,,0.79,WUHU216DAVISVP2,2013-10-22 23:05:00,
2013-10-22 19:10:00,73.7,69.6,29.82,WSW,251,2.0,4.0,87,0.37,,,0.83,WUHU216DAVISVP2,2013-10-22 23:10:00,
2013-10-22 19:15:00,73.6,69.8,29.82,WSW,244,1.0,5.0,88,0.40,,,0.86,WUHU216DAVISVP2,2013-10-22 23:15:00,
2013-10-22 19:20:00,73.3,69.5,29.83,SW,236,0.0,8.0,88,0.39,,,0.88,WUHU216DAVISVP2,2013-10-22 23:20:00,
2013-10-22 19:25:00,73.2,69.4,29.82,West,270,0.0,8.0,88,0.34,,,0.92,WUHU216DAVISVP2,2013-10-22 23:25:00,
2013-10-22 19:30:00,73.1,69.3,29.83,West,277,0.0,4.0,88,0.30,,,0.93,WUHU216DAVISVP2,2013-10-22 23:30:00,
2013-10-22 19:35:00,73.0,69.2,29.83,West,278,0.0,1.0,88,0.30,,,0.93,WUHU216DAVISVP2,2013-10-22 23:35:00,
2013-10-22 19:40:00,72.9,69.1,29.82,West,278,0.0,1.0,88,0.27,,,0.93,WUHU216DAVISVP2,2013-10-22 23:40:00,
2013-10-22 19:45:00,72.9,69.1,29.83,West,278,0.0,1.0,88,0.25,,,0.93,WUHU216DAVISVP2,2013-10-22 23:45:00,
2013-10-22 19:50:00,72.8,69.0,29.82,West,278,0.0,0.0,88,0.23,,,0.93,WUHU216DAVISVP2,2013-10-22 23:50:00,
2013-10-22 19:55:00,72.7,68.9,29.83,West,278,0.0,0.0,88,0.21,,,0.93,WUHU216DAVISVP2,2013-10-22 23:55:00,
2013-10-22 20:00:00,72.7,68.9,29.83,West,278,0.0,0.0,88,0.16,,,0.93,WUHU216DAVISVP2,2013-10-23 00:00:00,
2013-10-22 20:05:00,72.6,68.8,29.82,West,278,0.0,1.0,88,0.14,,,0.93,WUHU216DAVISVP2,2013-10-23 00:05:00,
2013-10-22 20:10:00,72.6,68.8,29.83,West,278,0.0,1.0,88,0.10,,,0.93,WUHU216DAVISVP2,2013-10-23 00:10:00,
2013-10-22 20:15:00,72.6,68.8,29.82,West,278,0.0,1.0,88,0.07,,,0.93,WUHU216DAVISVP2,2013-10-23 00:15:00,
2013-10-22 20:20:00,72.6,68.8,29.82,West,278,0.0,0.0,88,0.05,,,0.93,WUHU216DAVISVP2,2013-10-23 00:20:00,
2013-10-22 20:25:00,72.6,68.8,29.82,West,278,0.0,1.0,88,0.01,,,0.93,WUHU216DAVISVP2,2013-10-23 00:25:00,
2013-10-22 20:30:00,72.5,68.7,29.82,West,278,0.0,1.0,88,0.00,,,0.93,WUHU216DAVISVP2,2013-10-23 00:30:00,
2013-10-22 20:35:00,72.5,69.1,29.83,West,278,0.0,0.0,89,0.00,,,0.93,WUHU216DAVISVP2,2013-10-23 00:35:00,
2013-10-22 20:40:00,72.5,69.1,29.83,West,278,0.0,0.0,89,0.00,,,0.93,WUHU216DAVISVP2,2013-10-23 00:40:00,
2013-10-22 20:45:00,72.5,69.1,29.83,West,277,0.0,1.0,89,0.00,,,0.93,WUHU216DAVISVP2,2013-10-23 00:45:00,
2013-10-22 20:50:00,72.6,69.2,29.83,West,277,0.0,1.0,89,0.00,,,0.93,WUHU216DAVISVP2,2013-10-23 00:50:00,
2013-10-22 20:55:00,72.6,69.2,29.82,West,277,0.0,0.0,89,0.00,,,0.93,WUHU216DAVISVP2,2013-10-23 00:55:00,
2013-10-22 21:00:00,72.6,69.2,29.82,West,277,0.0,0.0,89,0.00,,,0.93,WUHU216DAVISVP2,2013-10-23 01:00:00,
2013-10-22 21:06:00,72.6,69.2,29.82,West,277,0.0,0.0,89,0.00,,,0.93,WUHU216DAVISVP2,2013-10-23 01:06:00,
2013-10-22 21:11:00,72.6,69.2,29.82,West,277,0.0,0.0,89,0.01,,,0.94,WUHU216DAVISVP2,2013-10-23 01:11:00,
2013-10-22 21:16:00,72.6,69.2,29.82,West,277,0.0,0.0,89,0.01,,,0.94,WUHU216DAVISVP2,2013-10-23 01:16:00,
2013-10-22 21:21:00,72.6,69.2,29.82,West,277,0.0,0.0,89,0.01,,,0.94,WUHU216DAVISVP2,2013-10-23 01:21:00,
2013-10-22 21:26:00,72.5,69.1,29.83,West,277,0.0,0.0,89,0.01,,,0.94,WUHU216DAVISVP2,2013-10-23 01:26:00,
2013-10-22 21:31:00,72.5,69.1,29.82,West,277,0.0,0.0,89,0.01,,,0.94,WUHU216DAVISVP2,2013-10-23 01:31:00,
2013-10-22 21:36:00,72.5,69.1,29.83,West,277,0.0,0.0,89,0.01,,,0.94,WUHU216DAVISVP2,2013-10-23 01:36:00,
2013-10-22 21:41:00,72.5,69.1,29.82,West,277,0.0,0.0,89,0.01,,,0.94,WUHU216DAVISVP2,2013-10-23 01:41:00,
2013-10-22 21:46:00,72.5,69.1,29.82,West,276,0.0,2.0,89,0.01,,,0.94,WUHU216DAVISVP2,2013-10-23 01:46:00,
2013-10-22 21:51:00,72.5,69.1,29.83,West,276,0.0,2.0,89,0.01,,,0.94,WUHU216DAVISVP2,2013-10-23 01:51:00,
2013-10-22 21:56:00,72.4,69.0,29.83,West,259,0.0,3.0,89,0.01,,,0.94,WUHU216DAVISVP2,2013-10-23 01:56:00,
2013-10-22 22:01:00,72.3,68.9,29.83,WSW,253,0.0,3.0,89,0.01,,,0.94,WUHU216DAVISVP2,2013-10-23 02:01:00,
2013-10-22 22:06:00,72.3,68.9,29.83,WSW,252,1.0,3.0,89,0.01,,,0.94,WUHU216DAVISVP2,2013-10-23 02:06:00,
2013-10-22 22:11:00,72.2,68.8,29.83,WSW,252,0.0,3.0,89,0.00,,,0.94,WUHU216DAVISVP2,2013-10-23 02:11:00,
2013-10-22 22:16:00,72.2,68.8,29.83,WSW,252,0.0,2.0,89,0.00,,,0.94,WUHU216DAVISVP2,2013-10-23 02:16:00,
2013-10-22 22:21:00,72.2,68.8,29.83,WSW,252,0.0,2.0,89,0.00,,,0.94,WUHU216DAVISVP2,2013-10-23 02:21:00,
2013-10-22 22:26:00,72.2,68.8,29.83,WSW,251,0.0,3.0,89,0.00,,,0.94,WUHU216DAVISVP2,2013-10-23 02:26:00,
2013-10-22 22:31:00,72.1,68.7,29.83,WSW,251,1.0,3.0,89,0.00,,,0.94,WUHU216DAVISVP2,2013-10-23 02:31:00,
2013-10-22 22:36:00,72.0,68.6,29.84,WSW,252,0.0,2.0,89,0.00,,,0.94,WUHU216DAVISVP2,2013-10-23 02:36:00,
2013-10-22 22:41:00,72.0,68.6,29.83,WSW,251,0.0,1.0,89,0.00,,,0.94,WUHU216DAVISVP2,2013-10-23 02:41:00,
2013-10-22 22:46:00,71.9,68.5,29.84,WSW,251,0.0,1.0,89,0.00,,,0.94,WUHU216DAVISVP2,2013-10-23 02:46:00,
2013-10-22 22:51:00,71.9,68.5,29.84,WSW,252,0.0,2.0,89,0.00,,,0.94,WUHU216DAVISVP2,2013-10-23 02:51:00,
2013-10-22 22:56:00,71.9,68.5,29.83,WSW,252,0.0,2.0,89,0.00,,,0.94,WUHU216DAVISVP2,2013-10-23 02:56:00,
2013-10-22 23:01:00,71.9,68.5,29.83,WSW,251,0.0,3.0,89,0.00,,,0.94,WUHU216DAVISVP2,2013-10-23 03:01:00,
2013-10-22 23:06:00,71.9,68.5,29.83,WSW,251,0.0,3.0,89,0.00,,,0.94,WUHU216DAVISVP2,2013-10-23 03:06:00,
2013-10-22 23:11:00,71.9,68.5,29.83,WSW,252,0.0,2.0,89,0.00,,,0.94,WUHU216DAVISVP2,2013-10-23 03:11:00,
2013-10-22 23:16:00,71.9,68.5,29.83,WSW,252,0.0,2.0,89,0.00,,,0.94,WUHU216DAVISVP2,2013-10-23 03:16:00,
2013-10-22 23:21:00,71.9,68.5,29.83,WSW,252,0.0,1.0,89,0.00,,,0.94,WUHU216DAVISVP2,2013-10-23 03:21:00,
2013-10-22 23:26:00,71.9,68.5,29.83,WSW,257,0.0,2.0,89,0.00,,,0.94,WUHU216DAVISVP2,2013-10-23 03:26:00,
2013-10-22 23:31:00,71.9,68.5,29.83,WSW,257,0.0,2.0,89,0.00,,,0.94,WUHU216DAVISVP2,2013-10-23 03:31:00,
2013-10-22 23:36:00,71.8,68.4,29.82,WSW,257,0.0,0.0,89,0.00,,,0.94,WUHU216DAVISVP2,2013-10-23 03:36:00,
2013-10-22 23:41:00,71.7,68.3,29.82,WSW,257,0.0,2.0,89,0.00,,,0.94,WUHU216DAVISVP2,2013-10-23 03:41:00,
2013-10-22 23:46:00,71.7,68.3,29.82,West,263,3.0,4.0,89,0.00,,,0.94,WUHU216DAVISVP2,2013-10-23 03:46:00,
2013-10-22 23:51:00,71.3,67.9,29.82,WSW,257,3.0,5.0,89,0.00,,,0.94,WUHU216DAVISVP2,2013-10-23 03:51:00,
2013-10-22 23:56:00,71.1,67.7,29.82,WSW,251,0.0,5.0,89,0.00,,,0.00,WUHU216DAVISVP2,2013-10-23 03:56:00,